W1EUM Weather Reports


time (UTC)temp
F
wind
direction
speed
knots
gust
knots
rain 1hr
in
rain 24hr
in
rain mn
in
humidity
%
barometer
mb
20260505011608 47 134 0.0 0.0 0.00 0.00 0.00 61 1006.8
20260505010053 48 177 0.0 0.0 0.00 0.00 0.00 68 1006.7
20260505004559 48 175 0.0 0.0 0.00 0.00 0.00 71 1006.6
20260505003054 49 169 0.0 0.0 0.00 0.00 0.00 74 1006.3
20260505001605 49 117 0.0 0.0 0.00 0.00 0.00 75 1006.0
20260505000105 49 166 0.0 0.0 0.00 0.00 0.00 75 1006.1
20260504234552 50 169 0.0 0.0 0.00 0.00 0.00 75 1005.9
20260504233103 50 143 0.0 0.0 0.00 0.00 0.00 74 1005.7
20260504231548 50 214 0.0 0.0 0.00 0.00 0.00 75 1005.6
20260504230047 52 122 0.0 0.0 0.00 0.00 0.00 74 1005.4
20260504224546 51 184 0.0 0.0 0.00 0.00 0.00 75 1005.4
20260504223047 50 178 0.0 0.0 0.00 0.00 0.00 75 1005.2
20260504221544 51 233 0.0 0.0 0.00 0.00 0.00 74 1005.1
20260504220043 51 188 0.0 0.0 0.00 0.00 0.00 75 1005.1
20260504214542 53 217 0.0 0.0 0.00 0.00 0.00 73 1005.1
20260504213042 52 223 0.0 0.0 0.00 0.00 0.00 74 1004.9
20260504211541 56 179 0.0 0.0 0.00 0.00 0.00 66 1004.9
20260504210040 61 198 0.0 0.0 0.00 0.00 0.00 58 1004.9
20260504204540 63 243 0.0 0.0 0.00 0.00 0.00 52 1004.9
20260504203036 62 27 0.0 0.0 0.00 0.00 0.00 53 1004.9
20260504201534 62 330 0.0 0.0 0.00 0.00 0.00 54 1005.0
20260504200031 60 162 0.0 0.0 0.00 0.00 0.00 58 1004.9
20260504194531 58 221 0.0 0.0 0.00 0.00 0.00 59 1005.1
20260504193026 57 229 0.0 0.0 0.00 0.00 0.00 60 1005.1
20260504191526 58 176 0.0 0.0 0.00 0.00 0.00 59 1005.3
20260504190026 57 255 0.0 0.0 0.00 0.00 0.00 60 1005.5
20260504184525 57 227 0.0 0.0 0.00 0.00 0.00 60 1005.5
20260504183023 55 169 0.0 0.0 0.00 0.00 0.00 65 1005.4
20260504181522 54 166 0.0 0.0 0.00 0.00 0.00 69 1005.3
20260504180021 54 238 0.0 0.0 0.00 0.00 0.00 67 1005.5
20260504174520 53 212 0.0 0.0 0.00 0.01 0.00 70 1005.2
20260504173021 57 215 0.0 0.0 0.00 0.01 0.00 57 1004.9
20260504171525 57 224 0.0 0.0 0.00 0.01 0.00 58 1004.9
20260504081534 0 0.0 0.0 0.00 0.16 0.00 1007.5
20260504050004 41 250 0.0 0.0 0.00 0.16 0.00 74 1007.2
20260504044506 42 227 0.0 0.0 0.00 0.16 0.00 71 1007.2
20260504043005 42 234 0.0 0.0 0.00 0.16 0.00 72 1007.2
20260504041501 41 244 0.0 0.0 0.00 0.16 0.00 73 1007.2
20260504040112 43 266 0.0 0.0 0.00 0.16 0.00 71 1007.1
20260504034604 44 222 0.0 0.0 0.00 0.16 0.16 64 1007.0
20260504033052 44 219 0.0 0.0 0.00 0.16 0.16 63 1006.9
20260504031549 44 270 0.0 0.0 0.00 0.16 0.16 62 1006.8
20260504030048 44 246 0.0 0.0 0.00 0.16 0.16 62 1006.7
20260504024548 45 272 0.0 0.0 0.00 0.16 0.16 61 1006.7
20260504023048 45 239 0.0 0.0 0.00 0.16 0.16 60 1006.6
20260504021549 45 281 0.0 0.0 0.00 0.16 0.16 59 1006.4
20260504020042 46 356 0.0 0.0 0.00 0.16 0.16 57 1006.4
20260504014541 46 314 0.0 0.0 0.00 0.16 0.16 55 1006.3
20260504013038 46 323 0.0 0.0 0.00 0.16 0.16 55 1006.2